Regional Weather Roundup
Issued by NWS Wakefield, VA

Home | Current Version | Previous Version | Graphics & Text | Print | Product List | Glossary On
Versions: 1 2 3 4 5 6 7 8 9 10 11 12 13 14 15 16 17 18 19 20 21 22 23 24 25 26 27 28 29 30 31 32 33 34 35 36 37 38 39 40 41 42 43 44 45 46 47 48 49 50
000
ASUS41 KAKQ 261710
RWRAKQ

REGIONAL WEATHER ROUNDUP
NATIONAL WEATHER SERVICE WAKEFIELD VA
1200 PM EST WED NOV 26 2014

Note: "fair" indicates few or no clouds below 12,000 feet with no
significant weather and/or obstructions to visibility. * = Denotes
station may not report precipitation (e.g., rain,snow,etc.),
thunder or fog.

VAZ042-051-052>054-056-261800-
NORTHERN VIRGINIA

CITY           SKY/WX    TMP DP  RH WIND       PRES   REMARKS
WASH NATIONAL  LGT RAIN  37  34  87 N9        29.99F FOG
DULLES         LGT SNOW  32  31  96 N10       29.99F VSB 1   WCI  24
FORT BELVOIR   LGT RAIN  36  32  87 N3        29.99F
QUANTICO       FLURRIES  37  33  85 NE8       30.00F
FREDERICKSBRG* RAIN      38  38 100 N8        29.96F
STAFFORD*      RAIN      36  36 100 N5        30.02F
WARRENTON      LGT SNOW  34  34 100 NW6       29.99S
CULPEPER*      LGT SNOW  34  34 100 N5        29.99F
MANASSAS*      LGT SNOW  34  34 100 NE8       29.99
LEESBURG*      SNOW      34  34 100 N9        30.01F VSB 1/2
WINCHESTER     LGT SNOW  34  32  93 NW3       30.02F VSB 3/4
FRONT ROYAL*   CLOUDY    32  32 100 CALM      30.00F VSB 1/2
LURAY*           N/A    N/A N/A N/A MISG        N/A
$$

VAZ048-049-060>072-079>083-261800-
CENTRAL AND SOUTH CENTRAL VIRGINIA

CITY           SKY/WX    TMP DP  RH WIND       PRES   REMARKS
RICHMOND       LGT RAIN  41  38  89 N16G24    29.89F FOG
CHESTERFIELD*  CLOUDY    39  28  65 N10       29.91F
PETERSBURG*    LGT RAIN  43  41  94 N13G22    29.88F
HANOVER        LGT RAIN  38  37  97 N8        29.92F FOG
TAPPAHANNOCK*  RAIN      40  37  87 N14G21    29.93F
QUINTON*       CLOUDY    40  39  96 N12G21    29.91F
CHARLOTTSVILLE LGT SNOW  33  32  96 N3        29.96F FOG
GORDONSVILLE*  CLOUDY    33  32  96 N3        29.97F FOG
ORANGE*        LGT SNOW  34  34 100 NW7       29.98F
LOUISA*        LGT RAIN  37  36  93 NW8       29.95S
BUMPASS*       CLOUDY    37  36  94 N6        29.94F
FARMVILLE*     CLOUDY    41  41 100 N8          N/A
CREWE*         CLOUDY    41  39  93 N3G16     29.88F
FORT PICKETT*  CLOUDY    41  40  97 N13G20    29.87F
CHASE CITY*    CLOUDY    43  42  97 N7G18     29.88F
CLARKSVILLE*   CLOUDY    41  39  93 N10G24    29.88F
SOUTH HILL*    CLOUDY    42  39  92 NE12G18   29.91F
LAWRENCEVILLE* CLOUDY    42  41  96 NE6       29.86F
$$

VAZ088>098-261800-
SOUTHEAST VIRGINIA

CITY           SKY/WX    TMP DP  RH WIND       PRES   REMARKS
NORFOLK        HVY RAIN  46  43  89 N28G37    29.80F FOG
VIRGINIA BEACH RAIN      47  43  86 N33G41    29.75F FOG
NORFOLK NAVAL  RAIN      48  43  82 N29G39    29.82F FOG
WEST POINT*    CLOUDY    45  42  89 N12G17    29.91F
SALUDA*        CLOUDY    42  40  92 N21G28    29.87F
NEWPORT NEWS   HVY RAIN  47  42  83 N14G26    29.83F
LANGLEY AFB    LGT RAIN  45  45 100 N26G32    29.83F FOG
FORT EUSTIS    RAIN      44  44 100 N13G23    29.82F
WILLIAMSBURG*  CLOUDY    46  45  93 N12G21    29.85F VSB 1
HR EXEC AP*    CLOUDY    45  41  87 N7G23     29.83F
FRANKLIN*      CLOUDY    45  43  93 N10G22    29.82F
WAKEFIELD      HVY RAIN  44  41  89 N14G20    29.84F FOG
$$

VAZ020-022-025-037-045-261800-
WEST CENTRAL AND SOUTHWEST VIRGINIA

CITY           SKY/WX    TMP DP  RH WIND       PRES   REMARKS
STAUNTON*      LGT SNOW  33  32  94 CALM      29.99F VSB 3/4
WAYNESBORO*    CLOUDY    32  32  99 NW6       29.96F VSB 3/4
HOT SPRINGS VA   N/A    N/A N/A N/A MISG        N/A
LYNCHBURG      LGT RAIN  35  35 100 VRB5      29.97F
DANVILLE       LGT RAIN  42  38  85 N12       29.98R
SOUTH BOSTON*  CLOUDY    41  39  93 N8        29.92F
MARTINSVILLE   LGT RAIN  38  38 100 NW5       30.01F
ROANOKE        LGT RAIN  33  32  96 CALM      30.00F FOG
BLACKSBURG     MIX PCPN  34  34 100 CALM      29.98F
DUBLIN*        MIX PCPN  36  36 100 CALM      29.98F
MARION*        LGT RAIN  35  34  94 W6        30.00S
HILLSVILLE*      N/A    N/A N/A N/A N5        29.95S
RICHLANDS*     CLOUDY    37  35  94 CALM      29.98F FOG
WISE*          CLOUDY    37  37 100 W6        30.00F
ABINGDON*      CLOUDY    39  37  93 W3        30.02S
$$

MDZ021>025-VAZ099-100-261800-
SOUTHERN MARYLAND AND THE DELMARVA PENINSULA

CITY           SKY/WX    TMP DP  RH WIND       PRES   REMARKS
PATUXENT RIVER LGT RAIN  41  38  89 N18G29    29.94F FOG
BAY BRIDGE APT RAIN      34  34 100 N10G16    29.99F
LEONARDTOWN    CLOUDY    37  36  93 N8G17     29.95F
DOVER          RAIN      39  39 100 N21G28    29.91F FOG
GEORGETOWN     HVY RAIN  43  40  89 N15G25    29.90F FOG
EASTON         HVY RAIN  39  39 100 N10G16    30.01F FOG
CAMBRIDGE      CLOUDY    41  37  87 N10G18    29.94F
SALISBURY      LGT RAIN  44  40  85 N16G22    29.85F FOG
OCEAN CITY     RAIN      44  42  93 N22G31    29.83F FOG
WALLOPS ISLAND RAIN      43  42  97 N18G26    29.79F FOG
ACCOMACK*      RAIN      43  41  93 N17G30    29.83F
$$

NCZ012>017-030>032-261800-
NORTH CENTRAL AND EASTERN NORTH CAROLINA

CITY           SKY/WX    TMP DP  RH WIND       PRES   REMARKS
ROANOKE RAPIDS RAIN      43  41  93 N13G21    29.86S
RALEIGH        LGT RAIN  45  41  86 VRB6      29.92R
ELIZABETH CITY HVY RAIN  48  45  87 N21G32    29.73F
AHOSKIE*       LGT RAIN  44  42  93 N14G22    29.83F
EDENTON*       LGT RAIN  46  45  95 N20G29    29.76F
CURRITUCK*     MIX PCPN  48  46  92 N13G21    29.77F
KILL DEVIL HLS RAIN      53  52  99 N14G25    29.68F
MANTEO         LGT RAIN  52  52  99 N17G24    29.70F
CAPE HATTERAS  RAIN      70  70 100 SW25G35   29.65F FOG
TARBORO*       RAIN      46  43  91 N10G16    29.86F
GOLDSBORO      CLOUDY    46  46 100 N15G23    29.83F
WASHINGTON     CLOUDY    45  44  95 N15G22    29.81F
GREENVILLE     RAIN      45  45 100 N13G21    29.85S
NEW BERN       LGT RAIN  49  45  86 N14G22    29.80S
WILMINGTON     LGT RAIN  48  46  93 N12G22    29.81F
$$

VAZ048-261800-
ELSEWHERE

CITY           SKY/WX    TMP DP  RH WIND       PRES   REMARKS
HARRISBURG PA  SNOW      32  32 100 NW5       30.02F VSB 1/2
BALTIMORE      SNOW      33  31  92 N7        29.98F VSB 1/2
ANNAPOLIS      LGT SNOW  35  33  92 N9        29.97F FOG
ANDREWS AFB    LGT SNOW  32  32 100 N8        29.96F FOG
PHILADELPHIA   LGT SNOW  34  31  88 N13       30.01F FOG     WCI  25
WILDWOOD NJ*   CLOUDY    41  36  81 N22G29    29.86F
HENDERSON NC   CLOUDY    43  40  90 N9G17     29.87F
GREENSBORO     LGT RAIN  40  37  89 N12       29.97R
ROCKY MOUNT    LGT RAIN  46  43  89 N16       29.85F
$$

VAZ100-261800-
MARINE

STATION/POSITION TIME  TEMP    WIND        PRES    WAVE   SWELL
                       AIR SEA DIR/SP/G            HT/PER HT/PER
                 (UTC) (F)     (DEG/KT/KT) (MB)    (FT/S) (FT/S)
CAPE MAY NJ      1700   42 51  360/ 12/ 19 1012.7R
LEWES DE         1700   44 49   10/ 24/ 28 1012.6F
15NM E FENWICK I 1700   50 56              1008.4F  10/ 7
OCEAN-CITY-INLET 1700           20/ 25/ 33 1009.4F
WACHAPREAGUE VA  1700   44 51  360/ 13/ 21 1009.3F
THOMAS POINT MD  1700   35 48   10/ 19/ 21 1015.2F
GOOSES REEF MD   1700   39 48   20/ 25/ 29 1013.9F   3/ 3
COVE POINT MD    1700           20/ 22/ 27 1012.9F
SOLOMONS ISLAND  1700      49                N/A
BISHOPS HEAD MD  1700   42 47  360/ 12/ 20 1012.5F
PINEY POINT MD   1700          360/ 17/ 21   N/A
POTOMAC MD       1700   42 50   10/ 19/ 23 1011.5F
CAMBRIDGE MD     1700   40 45   10/ 15/ 18 1014.4R
LEWISETTA VA     1700   42 49   20/ 12/ 21 1012.3F
RAPPAHANNOCK LGT 1700          350/ 35/ 39 1010.2R
STINGRAY PT      1700   44 49   10/ 25/ 33 1011.0F   4/ 4
YORK RVR RNG VA  1700   45      20/ 27/ 32 1009.5F
YORKTOWN VA      1700          360/ 16/ 21 1010.7F
JAMESTOWN VA     1700   42 51   30/ 10/ 19   N/A     1
DOMINION TERM VA 1700   45      50/  4/  8 1010.6F
KIPTOPEKE VA     1700      56   10/ 16/ 25   N/A
CHES BAY BRIDGE  1700          350/ 34/ 38 1008.6F
CAPE HENRY VA    1700   46     350/ 32/ 36 1008.4F
CHESAPEAKE LGHT  1600   50      10/ 38/ 42 1006.8F
WILLOUBY STN VA  1700   44     360/ 22/ 27 1008.4F
S CRANEY ISL VA  1700          340/ 20/ 26 1009.3F
CAPE HENRY BUOY  1600      56                N/A     9/ 8   2/11
1ST LANDING BUOY 1700   47 54  360/ 29/ 37 1008.6F   6/ 5
CAPE CHARLES BUO 1600      55                N/A     9/ 8   7/ 8
64NM E OF VA BCH 1700   63 66  350/ 16/ 21 1003.5F  12/ 8   8/ 8
DUCK PIER NC     1700   53 58  350/ 29/ 36 1005.2S
44100 DUCK FRF   1600      59                N/A     8/ 7   2/11
44056 DUCK FRF   1700      58                N/A     8/ 8   2/11
OREGON INLET NC  1700   62 58  280/  6/ 16 1005.1S
HATTERAS NC      1700          200/ 12/ 26 1004.6F
DIAMOND SHLS NC  1700   76     190/ 23/ 27 1004.2F
CAPE LOOKOUT NC  1600   68     230/ 18/ 24 1006.0F
$$


USA.gov is the U.S. government's official web portal to all federal, state and local government web resources and services.